TimeCST,TemperatureF,Dew PointF,Humidity,Sea Level PressureIn,VisibilityMPH,Wind Direction,Wind SpeedMPH,Gust SpeedMPH,PrecipitationIn,Events,Conditions,WindDirDegrees,DateUTC
12:15 AM,-4.9,-8.1,86,30.57,10.0,South,4.6,-,N/A,,Clear,180,2014-01-24 06:15:00
12:35 AM,-4.5,-7.8,86,30.55,10.0,SSW,6.9,-,N/A,,Clear,200,2014-01-24 06:35:00
12:55 AM,-4.4,-7.8,85,30.54,10.0,SSW,8.1,-,N/A,,Clear,200,2014-01-24 06:55:00
1:15 AM,-4.7,-8.0,86,30.54,10.0,SSW,6.9,-,N/A,,Clear,200,2014-01-24 07:15:00
1:35 AM,-4.0,-7.6,85,30.53,10.0,SSW,8.1,-,N/A,,Clear,200,2014-01-24 07:35:00
1:55 AM,-4.0,-7.6,85,30.52,10.0,SSW,8.1,-,N/A,,Clear,200,2014-01-24 07:55:00
2:15 AM,-3.3,-6.7,85,30.51,10.0,SSW,8.1,-,N/A,,Clear,210,2014-01-24 08:15:00
2:35 AM,-2.6,-6.7,82,30.50,10.0,SSW,6.9,-,N/A,,Clear,200,2014-01-24 08:35:00
2:55 AM,-2.4,-6.5,82,30.49,10.0,SSW,6.9,-,N/A,,Clear,200,2014-01-24 08:55:00
3:15 AM,-2.4,-6.5,82,30.47,10.0,South,8.1,-,N/A,,Clear,190,2014-01-24 09:15:00
3:35 AM,-1.5,-5.8,82,30.45,10.0,South,8.1,-,N/A,,Clear,190,2014-01-24 09:35:00
3:55 AM,-0.9,-5.6,81,30.44,10.0,South,8.1,-,N/A,,Clear,190,2014-01-24 09:55:00
4:15 AM,-0.8,-5.3,81,30.43,10.0,South,9.2,-,N/A,,Clear,190,2014-01-24 10:15:00
4:35 AM,-0.4,-5.1,81,30.41,10.0,South,9.2,-,N/A,,Clear,190,2014-01-24 10:35:00
4:55 AM,-0.2,-4.9,81,30.39,10.0,South,10.4,-,N/A,,Clear,190,2014-01-24 10:55:00
5:15 AM,1.4,-4.2,77,30.37,10.0,South,11.5,-,N/A,,Clear,180,2014-01-24 11:15:00
5:35 AM,1.9,-3.8,77,30.36,10.0,South,13.8,-,N/A,,Clear,190,2014-01-24 11:35:00
5:55 AM,2.7,-3.1,77,30.35,10.0,South,13.8,-,N/A,,Clear,190,2014-01-24 11:55:00
6:15 AM,2.8,-3.1,76,30.33,10.0,South,13.8,-,N/A,,Clear,190,2014-01-24 12:15:00
6:35 AM,4.3,-1.7,76,30.32,10.0,South,12.7,-,N/A,,Clear,190,2014-01-24 12:35:00
6:55 AM,4.8,-1.7,75,30.31,10.0,SSW,16.1,21.9,N/A,,Clear,200,2014-01-24 12:55:00
7:15 AM,4.5,-2.0,75,30.30,10.0,South,15.0,19.6,N/A,,Clear,190,2014-01-24 13:15:00
7:35 AM,5.7,-1.3,73,30.28,10.0,South,17.3,25.3,N/A,,Clear,190,2014-01-24 13:35:00
7:55 AM,5.5,-1.5,73,30.27,10.0,South,15.0,-,N/A,,Clear,190,2014-01-24 13:55:00
8:15 AM,5.5,-1.3,73,30.25,10.0,South,13.8,21.9,N/A,,Clear,190,2014-01-24 14:15:00
8:35 AM,7.5,-0.4,70,30.22,10.0,South,20.7,-,N/A,,Clear,190,2014-01-24 14:35:00
8:55 AM,9.5,0.5,67,30.19,10.0,South,23.0,28.8,N/A,,Clear,190,2014-01-24 14:55:00
9:15 AM,11.1,1.6,66,30.17,10.0,South,25.3,31.1,N/A,,Clear,190,2014-01-24 15:15:00
9:35 AM,11.3,1.6,65,30.15,10.0,South,26.5,33.4,N/A,,Clear,190,2014-01-24 15:35:00
9:55 AM,13.1,2.7,63,30.12,10.0,SSW,26.5,34.5,N/A,,Clear,200,2014-01-24 15:55:00
10:15 AM,15.3,3.6,60,30.10,10.0,SSW,27.6,39.1,N/A,,Clear,200,2014-01-24 16:15:00
10:35 AM,17.1,4.5,58,30.08,10.0,SSW,34.5,39.1,N/A,,Clear,200,2014-01-24 16:35:00
10:55 AM,16.7,5.0,60,30.05,10.0,SSW,32.2,41.4,N/A,,Clear,200,2014-01-24 16:55:00
11:15 AM,17.6,6.1,61,30.03,10.0,SSW,26.5,39.1,N/A,,Clear,200,2014-01-24 17:15:00
11:35 AM,18.7,7.9,63,30.00,10.0,SSW,26.5,35.7,N/A,,Clear,200,2014-01-24 17:35:00
11:55 AM,20.1,8.4,61,29.97,10.0,SSW,32.2,40.3,N/A,,Clear,210,2014-01-24 17:55:00
12:15 PM,20.1,8.6,61,29.95,10.0,SSW,28.8,41.4,N/A,,Clear,210,2014-01-24 18:15:00
12:35 PM,21.2,9.7,61,29.95,10.0,SW,21.9,31.1,N/A,,Mostly Cloudy,220,2014-01-24 18:35:00
12:55 PM,22.1,10.9,62,29.94,10.0,SSW,20.7,28.8,N/A,,Overcast,210,2014-01-24 18:55:00
1:15 PM,23.0,11.8,62,29.91,10.0,SSW,17.3,28.8,N/A,,Overcast,210,2014-01-24 19:15:00
1:35 PM,24.8,12.9,61,29.89,10.0,SSW,18.4,29.9,N/A,,Overcast,210,2014-01-24 19:35:00
1:55 PM,25.5,13.3,60,29.86,10.0,SSW,25.3,32.2,N/A,,Overcast,210,2014-01-24 19:55:00
2:15 PM,25.9,12.9,58,29.86,10.0,SW,25.3,32.2,N/A,,Overcast,220,2014-01-24 20:15:00
2:35 PM,26.4,13.6,59,29.84,10.0,SSW,21.9,31.1,N/A,,Overcast,210,2014-01-24 20:35:00
2:55 PM,26.6,14.5,60,29.84,10.0,SSW,17.3,25.3,N/A,,Overcast,210,2014-01-24 20:55:00
3:15 PM,27.5,14.9,59,29.83,10.0,SW,18.4,26.5,N/A,,Overcast,220,2014-01-24 21:15:00
3:35 PM,28.2,15.6,59,29.82,10.0,SW,17.3,23.0,N/A,,Overcast,220,2014-01-24 21:35:00
3:55 PM,28.6,15.3,58,29.82,10.0,SW,19.6,25.3,N/A,,Overcast,220,2014-01-24 21:55:00
4:15 PM,28.4,15.6,59,29.81,10.0,SW,17.3,21.9,N/A,,Overcast,220,2014-01-24 22:15:00
4:35 PM,28.6,16.0,59,29.80,10.0,SW,16.1,24.2,N/A,,Overcast,220,2014-01-24 22:35:00
4:55 PM,28.8,16.7,61,29.78,10.0,SSW,17.3,23.0,N/A,,Overcast,210,2014-01-24 22:55:00
5:15 PM,28.8,16.9,61,29.77,10.0,SSW,16.1,-,N/A,,Overcast,210,2014-01-24 23:15:00
5:35 PM,28.8,16.9,61,29.76,10.0,SSW,17.3,-,N/A,,Overcast,210,2014-01-24 23:35:00
5:55 PM,28.8,16.9,61,29.76,10.0,SSW,17.3,-,N/A,,Overcast,210,2014-01-24 23:55:00
6:15 PM,28.9,16.7,60,29.76,10.0,SSW,18.4,-,N/A,,Overcast,210,2014-01-25 00:15:00
6:35 PM,29.1,17.2,61,29.74,10.0,SSW,18.4,23.0,N/A,,Overcast,210,2014-01-25 00:35:00
6:55 PM,29.3,17.4,61,29.73,10.0,SSW,18.4,25.3,N/A,,Overcast,210,2014-01-25 00:55:00
7:15 PM,30.0,17.4,59,29.73,10.0,SW,20.7,29.9,N/A,,Overcast,220,2014-01-25 01:15:00
7:35 PM,30.6,18.7,61,29.71,10.0,SW,20.7,25.3,N/A,,Overcast,220,2014-01-25 01:35:00
7:55 PM,30.9,20.1,64,29.69,10.0,SSW,20.7,28.8,N/A,,Overcast,210,2014-01-25 01:55:00
8:15 PM,30.9,20.3,65,29.69,10.0,SW,19.6,26.5,N/A,,Overcast,220,2014-01-25 02:15:00
8:35 PM,30.9,20.8,66,29.67,10.0,SW,17.3,25.3,N/A,,Overcast,220,2014-01-25 02:35:00
8:55 PM,31.1,19.9,63,29.66,10.0,SW,20.7,27.6,N/A,,Overcast,220,2014-01-25 02:55:00
9:15 PM,31.6,19.6,61,29.65,10.0,SW,16.1,24.2,N/A,,Overcast,220,2014-01-25 03:15:00
9:35 PM,31.3,20.8,65,29.64,10.0,SW,17.3,24.2,N/A,,Overcast,220,2014-01-25 03:35:00
9:55 PM,31.5,21.0,65,29.63,10.0,SW,13.8,-,N/A,,Overcast,220,2014-01-25 03:55:00
10:15 PM,31.5,21.6,67,29.61,10.0,SW,15.0,21.9,N/A,,Overcast,220,2014-01-25 04:15:00
10:35 PM,31.5,23.9,74,29.60,5.0,SW,18.4,29.9,N/A,Snow,Light Snow,230,2014-01-25 04:35:00
10:55 PM,30.0,25.5,83,29.59,7.0,SW,12.7,-,N/A,Snow,Light Snow,220,2014-01-25 04:55:00
11:15 PM,31.6,22.8,70,29.56,10.0,SW,16.1,23.0,N/A,,Overcast,220,2014-01-25 05:15:00
11:35 PM,32.0,22.8,69,29.55,10.0,SW,15.0,21.9,N/A,,Overcast,220,2014-01-25 05:35:00
11:55 PM,32.4,23.5,70,29.55,10.0,SW,13.8,19.6,N/A,,Overcast,220,2014-01-25 05:55:00